Regional Weather Roundup
Issued by NWS

Home | Current Version | Previous Version | Graphics & Text | Print | Product List | Glossary On
Versions: 1 2 3 4 5 6 7 8 9 10 11 12 13 14 15 16 17 18 19 20 21 22 23 24 25 26 27 28 29 30 31 32 33 34 35 36 37 38 39 40 41 42 43 44 45 46 47 48 49 50
000
ASUS43 KIND 270100
RWRIN

WEATHER ROUNDUP FOR INDIANA
NATIONAL WEATHER SERVICE INDIANAPOLIS IN
900 PM EDT FRI MAY 26 2017

NOTE: "FAIR" INDICATES FEW OR NO CLOUDS BELOW 12,000 FEET WITH NO
SIGNIFICANT WEATHER AND/OR OBSTRUCTIONS TO VISIBILITY.

* - STATION DOES NOT REPORT WEATHER SUCH AS PRECIPITATION OR FOG.

+ - STATION NOT QUALITY CONTROLLED BY THE NATIONAL WEATHER SERVICE.
    USE DATA WITH CAUTION...ESPECIALLY DEWPOINT AND RELATIVE
    HUMIDITY OBSERVATIONS.

INZ001>003-010>013-019-020-270200-
NORTHWEST INDIANA

CITY           SKY/WX    TMP DP  RH WIND       PRES   REMARKS
GARY /AIRPORT/ CLOUDY    57  54  88 E12       29.83S
MICHIGAN CITY+ DRIZZLE   59  59 100 NE7       29.84R
MONTICELLO +   CLOUDY    65  63  91 CALM      29.78R
RENSSELAER +   CLOUDY    66  61  82 SE7       29.78S

$$

LMZ046-743>745-270200-
SOUTHERN LAKE MICHIGAN

STATION/POSITION TIME  TEMP    WIND        PRES    WAVE
                       AIR SEA DIR/SP/G            HT
                 (UTC) (F)     (DEG/KT/KT) (MB)    (FT)
BURNS HARBOR     0040   57      60/ 18/ 23 1010.5R
MICHIGAN CITY    0030   56      10/ 19/ 21   N/A
5NW MICH CITY    0050   54 53   50/ 14/ 17   N/A     2

$$

INZ004-005-014>016-021>024-270200-
NORTH CENTRAL INDIANA

CITY           SKY/WX    TMP DP  RH WIND       PRES   REMARKS
ELKHART        LGT RAIN  61  57  88 NE6       29.83R
GOSHEN         LGT RAIN  63  58  83 E9        29.82R
PERU/GRISSOM   MOCLDY    66  66 100 S9        29.78F
SOUTH BEND     RAIN      60  59  96 NE9       29.82R FOG

$$

INZ006>009-017-018-025>027-270200-
NORTHEAST INDIANA

CITY           SKY/WX    TMP DP  RH WIND       PRES   REMARKS
ANGOLA *+      CLOUDY    61  54  77 CALM      29.87R
FORT WAYNE     TSTM      65  61  87 NE8       29.82F FOG
KENDALLVILLE + RAIN      62  60  94 SE6       29.85F

$$

INZ028-029-035-036-043>045-051>053-270200-
WEST CENTRAL INDIANA

CITY           SKY/WX    TMP DP  RH WIND       PRES   REMARKS
CRAWFORDSVL +  TSTM     N/A N/A N/A SW5       29.80F
GREENCASTLE +  CLOUDY    73  59  60 SW3       29.81R
LAFAYETTE      CLOUDY    67  65  93 S6        29.78S
TERRE HAUTE    CLOUDY    73  63  70 CALM      29.80R

$$

INZ030>032-037>040-046>048-054>057-064-065-270200-
CENTRAL INDIANA

CITY           SKY/WX    TMP DP  RH WIND       PRES   REMARKS
COLUMBUS       CLOUDY    73  59  60 SE9       29.81F
GREENWOOD *+   CLOUDY    75  62  64 S12       29.79F
INDIANAPOLIS   TSTM      74  63  68 S12       29.79R
-EAGLE CREEK   TSTM      75  63  66 VRB5      29.81R
KOKOMO +       LGT RAIN  67  63  87 SE12      29.79F
SHELBYVILLE    CLOUDY    76  62  62 S13       29.79F

$$

INZ033-034-041-042-049-050-058-059-270200-
EAST CENTRAL INDIANA

CITY           SKY/WX    TMP DP  RH WIND       PRES   REMARKS
MUNCIE         TSTM      70  63  78 SE6       29.82S
RICHMOND +     CLOUDY    68  61  77 S8        29.85F

$$

INZ060-061-067>069-081>083-085>088-270200-
SOUTHWEST INDIANA

CITY           SKY/WX    TMP DP  RH WIND       PRES   REMARKS
EVANSVILLE     CLOUDY    79  63  57 SW13      29.83R
HUNTINGBURG *+ CLOUDY    77  61  57 S9        29.81S

$$

INZ062-063-066-070>080-084-089>092-270200-
SOUTH CENTRAL AND SOUTHEAST INDIANA

CITY           SKY/WX    TMP DP  RH WIND       PRES   REMARKS
BLOOMINGTON    CLOUDY    75  59  57 S6        29.81S
MADISON *+     CLOUDY    73  61  64 S6        29.86F
SEYMOUR +      CLOUDY    77  63  61 S8        29.81F

$$





USA.gov is the U.S. government's official web portal to all federal, state and local government web resources and services.